STARLINK-30270 (57530 NORAD) Tracking and Keplerian Element Data

This shows tracking and keplerian element data for the satellite.

Feedback or suggestion? Click here.




ElementValue
Catalog57530
NameSTARLINK-30270
Epoch Orbit2396
Epoch Day12.90258511
Epoch Year2024
RAAN319.7136
Inclination43.0037
Eccentricity0.0001135
Argument of Perigee262.4587
Mean Anonmoly97.6126
Mean Motion15.02533892
Decay Rate-8.7E-07
L11 57530U 23115K 24012.90258511 -.00000087 00000+0 86299-5 0 9996
L22 57530 43.0037 319.7136 0001135 262.4587 97.6126 15.02533892 23962



Live tracking and technical data element details for STARLINK-30270 (NORAD 57530). STARLINK-30270 can be tracked NOW for your location showing map with azimuth and elevation plus other details from your city location.







IsCatalogInMostPopularTable: catalog: 57530, numindb: 29
Update: records affected: 1



GetName: 57530 STARLINK-30270

Hit Count: updated at: Tue, 23 Apr 2024 20:34:01 GMT